Location: Leesville
(37.1191°N, 79.3856°W)
Time: 23:24:28
(UTC+00:00)

ACS3 Solar Sail - Visible Passes

Search period start: 07 October 2024 00:00
Search period end: 17 October 2024 00:00
Orbit: 962 x 1035 km, 97.4° (Epoch: 07 October)

Date Brightness Start Highest point End Pass type
(mag) Time Alt. Az. Time Alt. Az. Time Alt. Az.
07 Oct 3.0 00:04:45 21° E 00:06:07 22° ENE 00:10:50 10° NNE visible
07 Oct 2.4 01:49:54 56° W 01:49:54 56° W 01:55:48 10° NNW visible
08 Oct 2.3 00:36:56 39° E 00:37:28 40° ENE 00:43:19 10° N visible
08 Oct 3.4 02:22:06 30° W 02:22:06 30° W 02:26:54 10° NW visible
08 Oct 3.6 23:25:20 10° ENE 23:26:11 10° ENE 23:27:03 10° NE visible
09 Oct 1.7 01:09:06 72° ENE 01:09:06 72° ENE 01:15:19 10° N visible
09 Oct 4.2 02:54:15 16° W 02:54:15 16° W 02:57:06 10° NW visible
09 Oct 3.1 23:56:06 19° E 23:57:19 20° ENE 00:01:40 10° NNE visible
10 Oct 2.3 01:41:16 60° WNW 01:41:16 60° WNW 01:46:56 10° NNW visible
11 Oct 2.4 00:28:14 35° ENE 00:28:36 35° ENE 00:34:14 10° N visible
11 Oct 3.3 02:13:23 33° WNW 02:13:23 33° WNW 02:18:07 10° NNW visible
12 Oct 1.8 01:00:22 63° ENE 01:00:22 63° ENE 01:06:17 10° N visible
12 Oct 4.1 02:45:31 17° WNW 02:45:31 17° WNW 02:48:31 10° NW visible
12 Oct 3.2 23:47:19 17° ENE 23:48:23 18° ENE 23:52:19 10° NNE visible
13 Oct 2.2 01:32:28 63° NW 01:32:28 63° NW 01:37:56 10° NNW visible
14 Oct 2.5 00:19:25 31° ENE 00:19:35 31° ENE 00:25:01 10° N visible
14 Oct 3.2 02:04:33 35° WNW 02:04:33 35° WNW 02:09:10 10° NNW visible
15 Oct 2.0 00:51:30 55° NE 00:51:30 55° NE 00:57:06 10° N visible
15 Oct 4.0 02:36:39 19° WNW 02:36:39 19° WNW 02:39:44 10° NW visible
15 Oct 3.3 23:38:25 15° ENE 23:39:20 15° ENE 23:42:45 10° NNE visible
16 Oct 2.1 01:23:34 62° NNW 01:23:34 62° NNW 01:28:46 10° NNW visible
